[[{"header":{"parameterUnit":"m.s-1","parameterCategory":1,"la1":30.2991,"la2":30.254,"lo1":-89.0895,"lo2":-89.0444,"dy":0.0017,"dx":0.0017,"nx":28,"ny":28,"refTime":"2025-02-28T03:00:00:Z","depth":0,"parameterNumber":2,"parameterNumberName":"U-component_of_WINDS"},"data":[0,0,0,0,0,0,0,0,0,0,0,0,0,0,0,0,0,0,0,0,0,0,0,0,0,0,0,0,0,0,0,0,0,0,0,0,0,0,0,0,0,0,0,0,0,0,0,0,0,0,0,0,0,0,0,0,0,0,-0.0193,-0.0193,0,-0.0209,-0.0209,-0.021,-0.0215,-0.0215,-0.0215,-0.0214,-0.0233,-0.0234,-0.0234,0,0,0,0,0,0,0,0,0,0,0,0,0,-0.0168,-0.0168,-0.0193,-0.0193,-0.0193,-0.0209,-0.0209,-0.021,-0.0215,-0.0215,-0.0214,-0.0214,-0.0233,-0.0234,-0.0234,0,0,0,0,0,0,0,0,0,0,0,0,0,-0.0181,-0.0168,-0.0193,-0.0198,-0.0198,-0.0209,-0.0209,-0.021,-0.0215,-0.0215,-0.0214,-0.0214,-0.0233,-0.0234,-0.0235,-0.0242,0,0,-0.0237,-0.0238,0,0,0,0,0,0,0,0,-0.018,-0.0182,-0.0197,-0.0197,-0.0198,-0.021,-0.0207,-0.0221,-0.0215,-0.0209,-0.0214,-0.0214,-0.0226,-0.0227,-0.0231,-0.0243,-0.0244,-0.0237,-0.0238,-0.0238,-0.0238,0,0,0,0,0,0,0,-0.0179,-0.0181,-0.0199,-0.0197,-0.0198,-0.02,-0.0201,-0.021,-0.0218,-0.0209,-0.0209,-0.0211,-0.0226,-0.023,-0.0231,-0.0244,-0.0237,-0.0238,-0.0239,-0.0239,-0.0264,-0.0264,0,0,0,0,0,0,-0.0177,-0.018,-0.0199,-0.02,-0.0189,-0.02,-0.0202,-0.0206,-0.0218,-0.0219,-0.0211,-0.0211,-0.0228,-0.023,-0.0232,-0.0241,-0.0238,-0.0239,-0.0239,-0.0264,-0.0264,-0.0264,0,0,0,0,0,0,-0.0177,-0.0179,-0.0198,-0.019,-0.0193,-0.0201,-0.0205,-0.0206,-0.021,-0.0219,-0.0221,-0.0213,-0.0228,-0.023,-0.0239,-0.0242,-0.0239,-0.024,-0.0264,-0.0264,-0.0264,-0.0261,0,0,0,0,0,0,-0.0176,-0.0179,-0.0181,-0.019,-0.0193,-0.0205,-0.0205,-0.0207,-0.0211,-0.0212,-0.0222,-0.0223,-0.0228,-0.0238,-0.024,-0.0243,-0.0241,-0.0264,-0.0264,-0.0264,-0.0261,-0.0261,-0.0261,0,0,0,0,0,-0.0175,-0.018,-0.0181,-0.0184,-0.0197,-0.0205,-0.0207,-0.0212,-0.0212,-0.0215,-0.022,-0.0223,-0.0241,-0.0239,-0.0242,-0.0245,-0.0263,-0.0264,-0.0264,-0.0261,-0.0261,-0.0261,0,0,0,0,0,0,-0.0173,-0.0182,-0.0183,-0.0191,-0.0197,-0.0206,-0.021,-0.0212,-0.0219,-0.0219,-0.0226,-0.0228,-0.0237,-0.0242,-0.0239,-0.0253,-0.0253,-0.0253,-0.0249,-0.025,-0.025,-0.0249,-0.0242,0,0,0,0,0,-0.0173,-0.0178,-0.0186,-0.0193,-0.0196,-0.0202,-0.0206,-0.021,-0.0217,-0.0219,-0.0226,-0.0233,-0.024,-0.0245,-0.0253,-0.0262,-0.0264,-0.0265,-0.0265,-0.0265,-0.0266,-0.0271,-0.0272,-0.0265,-0.0265,-0.0265,0,0,-0.0174,-0.0179,-0.0183,-0.0193,-0.0198,-0.0204,-0.0205,-0.0211,-0.0216,-0.0221,-0.0229,-0.0234,-0.0243,-0.0252,-0.0256,-0.0256,-0.0268,-0.0266,-0.0266,-0.0267,-0.0272,-0.0272,-0.0273,-0.0266,-0.0266,-0.0266,0,0,-0.0179,-0.0183,-0.0189,-0.0194,-0.0201,-0.0206,-0.0207,-0.0215,-0.0218,-0.0227,-0.023,-0.0237,-0.0249,-0.0255,-0.026,-0.0266,-0.0268,-0.0268,-0.0269,-0.0274,-0.0274,-0.0275,-0.0277,-0.0278,-0.0269,-0.0269,-0.0269,0,-0.0179,-0.0188,-0.0192,-0.0198,-0.0203,-0.0206,-0.0212,-0.0217,-0.0227,-0.023,-0.0229,-0.0245,-0.0251,-0.0261,-0.0262,-0.0266,-0.0268,-0.0267,-0.0274,-0.0274,-0.0275,-0.0277,-0.0278,-0.0269,-0.0269,-0.0269,-0.0269,0,-0.0188,-0.0194,-0.0198,-0.0206,-0.0211,-0.0217,-0.0223,-0.0227,-0.023,-0.0234,-0.0243,-0.025,-0.0258,-0.0261,-0.0264,-0.0272,-0.0271,-0.0272,-0.0272,-0.0275,-0.0278,-0.0278,-0.0268,-0.0268,-0.0268,-0.0268,0,0,-0.0193,-0.0202,-0.0204,-0.0207,-0.0216,-0.0221,-0.0227,-0.0235,-0.0238,-0.0245,-0.025,-0.026,-0.0261,-0.0266,-0.027,-0.0274,-0.0279,-0.0275,-0.0275,-0.0275,-0.0287,-0.0287,-0.0288,-0.028,-0.028,-0.028,-0.0287,0,-0.0199,-0.021,-0.0213,-0.0222,-0.0228,-0.0231,-0.0236,-0.0242,-0.0246,-0.0252,-0.0257,-0.0264,-0.0264,-0.0267,-0.0272,-0.0277,-0.0281,-0.0277,-0.0286,-0.0286,-0.0284,-0.0289,-0.0288,-0.0294,-0.0288,-0.0288,-0.0288,0,-0.0208,-0.0213,-0.0222,-0.0229,-0.0232,-0.0237,-0.0244,-0.0249,-0.0256,-0.0258,-0.0264,-0.0267,-0.0274,-0.0273,-0.0283,-0.028,-0.0284,-0.0287,-0.0287,-0.0289,-0.0288,-0.0291,-0.0296,-0.0297,-0.0289,-0.0289,-0.0289,0,-0.021,-0.022,-0.0227,-0.023,-0.0238,-0.0241,-0.0245,-0.0251,-0.0255,-0.0262,-0.0265,-0.0272,-0.0276,-0.0282,-0.0287,-0.0286,-0.0296,-0.0296,-0.0299,-0.0299,-0.0302,-0.0302,-0.0308,-0.0304,-0.0304,-0.0304,-0.0304,0,-0.0217,-0.0222,-0.0228,-0.0232,-0.0239,-0.0243,-0.0249,-0.0253,-0.0259,-0.0264,-0.0267,-0.0272,-0.0278,-0.0285,-0.0289,-0.0296,-0.0298,-0.0301,-0.0302,-0.0301,-0.03,-0.0304,-0.0304,-0.0304,-0.0304,-0.0304,-0.0304,0,-0.0221,-0.0225,-0.0232,-0.0239,-0.0241,-0.0245,-0.0251,-0.0256,-0.0259,-0.0266,-0.0268,-0.0274,-0.0281,-0.0287,-0.0297,-0.0299,-0.0307,-0.0309,-0.0305,-0.0306,-0.0309,-0.0308,-0.0318,-0.0319,-0.0314,-0.0314,-0.0314,0,-0.0225,-0.0229,-0.0236,-0.024,-0.0243,-0.0248,-0.0252,-0.0257,-0.0261,-0.0268,-0.0272,-0.0279,-0.0285,-0.0296,-0.0302,-0.0309,-0.0311,-0.0313,-0.0312,-0.031,-0.0311,-0.0311,-0.0311,-0.0314,-0.0314,-0.0314,-0.0314,0,-0.0232,-0.0234,-0.0239,-0.0245,-0.0249,-0.0254,-0.0259,-0.0262,-0.0267,-0.0271,-0.0278,-0.0283,-0.0292,-0.0299,-0.0307,-0.0311,-0.0314,-0.0314,-0.0315,-0.0314,-0.0312,-0.0314,-0.0306,-0.0314,-0.0314,-0.0314,-0.0314,-0.0314,-0.0237,-0.0241,-0.0246,-0.0251,-0.0255,-0.026,-0.0264,-0.0268,-0.0273,-0.0281,-0.0283,-0.029,-0.0296,-0.0306,-0.0311,-0.0317,-0.0317,-0.0319,-0.0319,-0.032,-0.032,-0.0311,-0.0318,-0.0318,-0.0318,-0.0318,-0.0318,0,-0.0244,-0.0247,-0.0252,-0.0259,-0.0263,-0.0264,-0.0269,-0.0273,-0.0279,-0.0284,-0.029,-0.0298,-0.0304,-0.031,-0.0317,-0.0321,-0.0322,-0.0323,-0.0323,-0.0324,-0.0319,-0.0317,-0.0322,-0.0322,-0.0322,-0.0322,-0.0322,-0.0322,-0.0249,-0.0255,-0.0257,-0.0265,-0.0269,-0.0275,-0.0278,-0.0282,-0.0286,-0.0295,-0.03,-0.0303,-0.0309,-0.0316,-0.0322,-0.0324,-0.0327,-0.0327,-0.0329,-0.0325,-0.0324,-0.0324,-0.0322,-0.0327,-0.0327,-0.0333,-0.0333,-0.0333]},{"header":{"parameterUnit":"m.s-1","parameterCategory":1,"la1":30.2991,"la2":30.254,"lo1":-89.0895,"lo2":-89.0444,"dy":0.0017,"dx":0.0017,"nx":28,"ny":28,"refTime":"2025-02-28T03:00:00:Z","depth":0,"parameterNumber":3,"parameterNumberName":"V-component_of_WINDS"},"data":[0,0,0,0,0,0,0,0,0,0,0,0,0,0,0,0,0,0,0,0,0,0,0,0,0,0,0,0,0,0,0,0,0,0,0,0,0,0,0,0,0,0,0,0,0,0,0,0,0,0,0,0,0,0,0,0,0,0,-4.046,-4.046,0,-4.0486,-4.0486,-4.0487,-4.0435,-4.0433,-4.0431,-4.043,-4.0455,-4.0457,-4.0459,0,0,0,0,0,0,0,0,0,0,0,0,0,-4.0363,-4.0365,-4.046,-4.046,-4.0461,-4.0486,-4.0486,-4.0487,-4.0435,-4.0433,-4.0431,-4.0429,-4.0454,-4.0456,-4.0459,0,0,0,0,0,0,0,0,0,0,0,0,0,-4.0399,-4.0366,-4.046,-4.0438,-4.0436,-4.0486,-4.0486,-4.0487,-4.0436,-4.0433,-4.043,-4.0428,-4.0453,-4.0456,-4.046,-4.0531,0,0,-4.047,-4.0471,0,0,0,0,0,0,0,0,-4.0397,-4.0403,-4.0441,-4.0439,-4.0438,-4.0455,-4.0461,-4.0502,-4.0436,-4.0436,-4.043,-4.0427,-4.0456,-4.0459,-4.047,-4.0532,-4.0533,-4.047,-4.0472,-4.0474,-4.0475,0,0,0,0,0,0,0,-4.0395,-4.0401,-4.047,-4.0441,-4.0439,-4.0426,-4.0428,-4.0469,-4.046,-4.0436,-4.0432,-4.0436,-4.0455,-4.0467,-4.047,-4.0534,-4.047,-4.0473,-4.0475,-4.0476,-4.0658,-4.0661,0,0,0,0,0,0,-4.0395,-4.04,-4.0469,-4.0471,-4.0411,-4.043,-4.0433,-4.0452,-4.0459,-4.0458,-4.0438,-4.0433,-4.0462,-4.0466,-4.0471,-4.0556,-4.0474,-4.0477,-4.0479,-4.0655,-4.0658,-4.0661,0,0,0,0,0,0,-4.0393,-4.0402,-4.0468,-4.0434,-4.0442,-4.0434,-4.0456,-4.0454,-4.0465,-4.0461,-4.0459,-4.0452,-4.046,-4.0466,-4.0517,-4.0556,-4.0478,-4.0481,-4.0652,-4.0656,-4.066,-4.0727,0,0,0,0,0,0,-4.0391,-4.0402,-4.0429,-4.0435,-4.0444,-4.0515,-4.0459,-4.0456,-4.0471,-4.0465,-4.0474,-4.0472,-4.0459,-4.0512,-4.052,-4.056,-4.0484,-4.0648,-4.0654,-4.0659,-4.0722,-4.0733,-4.0744,0,0,0,0,0,-4.0388,-4.0446,-4.0431,-4.0439,-4.0478,-4.0517,-4.0522,-4.0506,-4.0475,-4.0502,-4.05,-4.0472,-4.0551,-4.0518,-4.0527,-4.0567,-4.0646,-4.0652,-4.0658,-4.0717,-4.0731,-4.0743,0,0,0,0,0,0,-4.0444,-4.0447,-4.0429,-4.0492,-4.0505,-4.0508,-4.0542,-4.0521,-4.0543,-4.0536,-4.0514,-4.0517,-4.0572,-4.0575,-4.0538,-4.0638,-4.0593,-4.0601,-4.0634,-4.0648,-4.0659,-4.0657,-4.0487,0,0,0,0,0,-4.0463,-4.0496,-4.0496,-4.0551,-4.0559,-4.055,-4.0566,-4.0553,-4.0565,-4.057,-4.0571,-4.0583,-4.0611,-4.0629,-4.0654,-4.0722,-4.0723,-4.0754,-4.0765,-4.0774,-4.0782,-4.0818,-4.0833,-4.0682,-4.0682,-4.0682,0,0,-4.0504,-4.051,-4.0531,-4.0563,-4.0571,-4.0605,-4.0555,-4.0592,-4.0616,-4.0575,-4.0624,-4.0626,-4.0638,-4.0698,-4.0724,-4.0701,-4.0823,-4.0782,-4.0789,-4.0792,-4.0826,-4.0841,-4.0853,-4.0686,-4.0686,-4.0685,0,0,-4.0596,-4.0604,-4.0651,-4.0661,-4.0675,-4.0669,-4.068,-4.0687,-4.0687,-4.0736,-4.0706,-4.0735,-4.0782,-4.0793,-4.0804,-4.0902,-4.0877,-4.091,-4.0967,-4.1004,-4.1016,-4.1026,-4.1062,-4.1075,-4.0918,-4.0918,-4.0918,0,-4.0645,-4.0695,-4.0678,-4.0718,-4.0733,-4.0698,-4.0746,-4.0756,-4.0777,-4.0788,-4.0763,-4.0823,-4.0828,-4.0891,-4.0915,-4.0925,-4.0938,-4.0909,-4.1015,-4.1026,-4.1035,-4.1069,-4.1082,-4.0922,-4.0921,-4.0921,-4.0921,0,-4.0755,-4.0791,-4.0827,-4.085,-4.0869,-4.0912,-4.0901,-4.0923,-4.0908,-4.0904,-4.0955,-4.0961,-4.0987,-4.1001,-4.0986,-4.1062,-4.1047,-4.1019,-4.0973,-4.1054,-4.1085,-4.1098,-4.0928,-4.0926,-4.0925,-4.0924,0,0,-4.0883,-4.0896,-4.091,-4.0921,-4.0934,-4.0961,-4.1003,-4.103,-4.1049,-4.1065,-4.11,-4.1142,-4.1116,-4.1129,-4.1115,-4.1147,-4.1226,-4.1115,-4.1115,-4.1136,-4.131,-4.1332,-4.1348,-4.1209,-4.1212,-4.1214,-4.131,0,-4.0975,-4.1049,-4.1035,-4.1107,-4.114,-4.1108,-4.1145,-4.1157,-4.1155,-4.1182,-4.1179,-4.121,-4.1173,-4.1181,-4.1211,-4.121,-4.126,-4.1202,-4.1242,-4.1244,-4.1241,-4.1364,-4.1387,-4.1478,-4.1322,-4.1324,-4.1325,0,-4.1092,-4.1114,-4.119,-4.12,-4.1213,-4.1246,-4.1271,-4.1297,-4.131,-4.1306,-4.1322,-4.1303,-4.1345,-4.1299,-4.1356,-4.1318,-4.1333,-4.1335,-4.1338,-4.1341,-4.129,-4.1372,-4.1506,-4.152,-4.1344,-4.1343,-4.1342,0,-4.1179,-4.1227,-4.1279,-4.1289,-4.1301,-4.1326,-4.1332,-4.1343,-4.136,-4.1381,-4.1392,-4.1417,-4.1431,-4.1451,-4.1438,-4.1406,-4.1499,-4.1451,-4.1497,-4.1498,-4.1519,-4.1518,-4.1658,-4.1527,-4.1527,-4.1527,-4.1527,0,-4.1284,-4.1332,-4.1319,-4.1351,-4.1404,-4.1387,-4.144,-4.1442,-4.1452,-4.1484,-4.1457,-4.1487,-4.1469,-4.1498,-4.1489,-4.1539,-4.1545,-4.1543,-4.154,-4.1546,-4.1547,-4.1557,-4.155,-4.1531,-4.153,-4.1529,-4.1528,0,-4.139,-4.1383,-4.1438,-4.1446,-4.1449,-4.1487,-4.1494,-4.1524,-4.152,-4.1561,-4.1569,-4.1564,-4.1596,-4.1586,-4.1621,-4.1615,-4.1679,-4.1667,-4.1675,-4.1672,-4.1719,-4.1716,-4.1872,-4.1892,-4.1747,-4.1749,-4.175,0,-4.1457,-4.1494,-4.1506,-4.1526,-4.1535,-4.1567,-4.1585,-4.157,-4.159,-4.1609,-4.1637,-4.1667,-4.1691,-4.1745,-4.1744,-4.177,-4.176,-4.1813,-4.1764,-4.1769,-4.1762,-4.1761,-4.1765,-4.1823,-4.1824,-4.1826,-4.1827,0,-4.1579,-4.1574,-4.1602,-4.1629,-4.1652,-4.1672,-4.169,-4.1708,-4.1694,-4.1718,-4.1752,-4.177,-4.1807,-4.1838,-4.1863,-4.1868,-4.1846,-4.1842,-4.1855,-4.1862,-4.1865,-4.1865,-4.1703,-4.1839,-4.1838,-4.1837,-4.1836,-4.1836,-4.1668,-4.17,-4.1714,-4.1746,-4.1758,-4.1776,-4.1805,-4.1806,-4.1834,-4.1864,-4.1853,-4.1892,-4.1905,-4.1936,-4.1945,-4.1975,-4.1955,-4.1973,-4.1977,-4.1982,-4.1989,-4.186,-4.198,-4.1979,-4.1979,-4.1979,-4.1978,0,-4.1789,-4.1797,-4.1827,-4.1854,-4.1879,-4.1857,-4.1876,-4.1898,-4.1934,-4.1948,-4.1973,-4.2012,-4.2043,-4.2044,-4.2073,-4.2097,-4.2087,-4.2105,-4.2103,-4.2105,-4.2005,-4.1992,-4.2112,-4.2112,-4.2112,-4.2112,-4.2112,-4.2112,-4.1855,-4.1908,-4.1905,-4.1964,-4.1971,-4.201,-4.2023,-4.204,-4.2051,-4.2097,-4.2123,-4.2124,-4.2134,-4.2163,-4.2189,-4.2189,-4.2201,-4.2223,-4.2219,-4.2125,-4.2112,-4.2099,-4.2087,-4.2225,-4.2226,-4.2317,-4.2318,-4.2318]}]]